Time,TemperatureF,DewpointF,PressureIn,WindDirection,WindDirectionDegrees,WindSpeedMPH,WindSpeedGustMPH,Humidity,HourlyPrecipIn,Conditions,Clouds,dailyrainin,SoftwareType,DateUTC
2013-08-03 00:04:00,74.0,72.0,29.98,East,92,0.0,0.0,92,0.00,,,0.00,weatherlink.com 1.10,2013-08-03 04:04:00,
2013-08-03 00:19:00,73.7,71.0,29.98,East,92,0.0,1.0,92,0.00,,,0.00,weatherlink.com 1.10,2013-08-03 04:19:00,
2013-08-03 00:34:00,73.3,71.0,29.98,East,92,1.0,1.0,92,0.00,,,0.00,weatherlink.com 1.10,2013-08-03 04:34:00,
2013-08-03 00:49:00,72.6,70.0,29.98,East,95,0.0,2.0,92,0.00,,,0.00,weatherlink.com 1.10,2013-08-03 04:49:00,
2013-08-03 01:04:00,72.4,70.0,29.98,East,95,0.0,1.0,93,0.00,,,0.00,weatherlink.com 1.10,2013-08-03 05:04:00,
2013-08-03 01:19:00,72.4,70.0,29.98,East,95,0.0,0.0,93,0.00,,,0.00,weatherlink.com 1.10,2013-08-03 05:19:00,
2013-08-03 01:34:00,72.2,70.0,29.98,East,95,0.0,0.0,94,0.00,,,0.00,weatherlink.com 1.10,2013-08-03 05:34:00,
2013-08-03 01:49:00,72.0,70.0,29.98,East,95,0.0,0.0,94,0.00,,,0.00,weatherlink.com 1.10,2013-08-03 05:49:00,
2013-08-03 02:04:00,71.8,70.0,29.98,East,95,0.0,0.0,95,0.00,,,0.00,weatherlink.com 1.10,2013-08-03 06:04:00,
2013-08-03 02:19:00,71.8,70.0,29.97,East,95,0.0,0.0,95,0.00,,,0.00,weatherlink.com 1.10,2013-08-03 06:19:00,
2013-08-03 02:34:00,71.6,70.0,29.97,East,95,0.0,0.0,95,0.00,,,0.00,weatherlink.com 1.10,2013-08-03 06:34:00,
2013-08-03 02:49:00,71.3,70.0,29.96,East,95,0.0,0.0,95,0.00,,,0.00,weatherlink.com 1.10,2013-08-03 06:49:00,
2013-08-03 03:04:00,71.2,70.0,29.96,East,95,0.0,0.0,95,0.00,,,0.00,weatherlink.com 1.10,2013-08-03 07:04:00,
2013-08-03 03:19:00,70.9,70.0,29.96,East,95,0.0,0.0,96,0.00,,,0.00,weatherlink.com 1.10,2013-08-03 07:19:00,
2013-08-03 03:34:00,70.6,69.0,29.96,East,95,0.0,1.0,95,0.00,,,0.00,weatherlink.com 1.10,2013-08-03 07:34:00,
2013-08-03 03:49:00,70.2,69.0,29.95,East,95,0.0,1.0,96,0.00,,,0.00,weatherlink.com 1.10,2013-08-03 07:49:00,
2013-08-03 04:04:00,69.9,69.0,29.95,East,95,0.0,0.0,96,0.00,,,0.00,weatherlink.com 1.10,2013-08-03 08:04:00,
2013-08-03 04:19:00,69.9,69.0,29.95,East,95,0.0,0.0,97,0.00,,,0.00,weatherlink.com 1.10,2013-08-03 08:19:00,
2013-08-03 04:34:00,69.9,69.0,29.95,East,95,0.0,0.0,96,0.00,,,0.00,weatherlink.com 1.10,2013-08-03 08:34:00,
2013-08-03 04:49:00,69.7,69.0,29.96,East,95,1.0,2.0,96,0.00,,,0.00,weatherlink.com 1.10,2013-08-03 08:49:00,
2013-08-03 05:04:00,69.3,68.0,29.96,East,95,0.0,0.0,96,0.00,,,0.00,weatherlink.com 1.10,2013-08-03 09:04:00,
2013-08-03 05:19:00,69.2,68.0,29.96,East,95,0.0,0.0,97,0.00,,,0.00,weatherlink.com 1.10,2013-08-03 09:19:00,
2013-08-03 05:34:00,69.0,68.0,29.95,East,95,0.0,1.0,97,0.00,,,0.00,weatherlink.com 1.10,2013-08-03 09:34:00,
2013-08-03 05:49:00,69.0,68.0,29.96,East,95,0.0,1.0,97,0.00,,,0.00,weatherlink.com 1.10,2013-08-03 09:49:00,
2013-08-03 06:04:00,68.8,68.0,29.96,East,95,0.0,0.0,96,0.00,,,0.00,weatherlink.com 1.10,2013-08-03 10:04:00,
2013-08-03 06:19:00,68.8,68.0,29.96,East,95,0.0,1.0,97,0.00,,,0.00,weatherlink.com 1.10,2013-08-03 10:19:00,
2013-08-03 06:34:00,68.9,68.0,29.96,East,95,0.0,0.0,97,0.00,,,0.00,weatherlink.com 1.10,2013-08-03 10:34:00,
2013-08-03 06:49:00,68.7,68.0,29.96,East,95,0.0,1.0,97,0.00,,,0.00,weatherlink.com 1.10,2013-08-03 10:49:00,
2013-08-03 07:04:00,68.6,68.0,29.96,East,95,0.0,0.0,97,0.00,,,0.00,weatherlink.com 1.10,2013-08-03 11:04:00,
2013-08-03 07:19:00,68.8,68.0,29.96,East,95,0.0,0.0,97,0.00,,,0.00,weatherlink.com 1.10,2013-08-03 11:19:00,
2013-08-03 07:34:00,69.0,68.0,29.96,East,95,0.0,1.0,97,0.00,,,0.00,weatherlink.com 1.10,2013-08-03 11:34:00,
2013-08-03 07:49:00,69.1,68.0,29.96,East,95,0.0,0.0,97,0.00,,,0.00,weatherlink.com 1.10,2013-08-03 11:49:00,
2013-08-03 08:04:00,69.5,69.0,29.97,East,95,0.0,0.0,97,0.00,,,0.00,weatherlink.com 1.10,2013-08-03 12:04:00,
2013-08-03 08:19:00,70.2,69.0,29.97,East,95,1.0,1.0,97,0.00,,,0.00,weatherlink.com 1.10,2013-08-03 12:19:00,
2013-08-03 08:34:00,70.5,70.0,29.98,East,95,0.0,2.0,97,0.00,,,0.00,weatherlink.com 1.10,2013-08-03 12:34:00,
2013-08-03 08:49:00,71.0,70.0,29.97,East,95,0.0,1.0,96,0.00,,,0.00,weatherlink.com 1.10,2013-08-03 12:49:00,
2013-08-03 09:04:00,71.6,70.0,29.97,East,95,1.0,2.0,96,0.00,,,0.00,weatherlink.com 1.10,2013-08-03 13:04:00,
2013-08-03 09:19:00,72.4,71.0,29.98,East,90,1.0,2.0,96,0.00,,,0.00,weatherlink.com 1.10,2013-08-03 13:19:00,
2013-08-03 09:35:00,72.8,71.0,29.98,SSE,161,3.0,4.0,94,0.00,,,0.00,weatherlink.com 1.10,2013-08-03 13:35:00,
2013-08-03 09:50:00,74.5,71.0,29.97,SE,125,1.0,4.0,89,0.00,,,0.00,weatherlink.com 1.10,2013-08-03 13:50:00,
2013-08-03 10:05:00,76.2,71.0,29.97,SSE,155,1.0,3.0,85,0.00,,,0.00,weatherlink.com 1.10,2013-08-03 14:05:00,
2013-08-03 10:20:00,77.5,72.0,29.97,South,188,1.0,4.0,82,0.00,,,0.00,weatherlink.com 1.10,2013-08-03 14:20:00,
2013-08-03 10:35:00,78.0,72.0,29.98,SW,223,2.0,5.0,81,0.00,,,0.00,weatherlink.com 1.10,2013-08-03 14:35:00,
2013-08-03 10:50:00,78.6,72.0,29.98,SW,223,3.0,4.0,80,0.00,,,0.00,weatherlink.com 1.10,2013-08-03 14:50:00,
2013-08-03 11:05:00,79.0,73.0,29.97,SW,216,2.0,4.0,81,0.00,,,0.00,weatherlink.com 1.10,2013-08-03 15:05:00,
2013-08-03 11:20:00,79.8,72.0,29.98,SSW,210,3.0,7.0,78,0.00,,,0.00,weatherlink.com 1.10,2013-08-03 15:20:00,
2013-08-03 11:35:00,80.6,72.0,29.96,SW,220,1.0,7.0,75,0.00,,,0.00,weatherlink.com 1.10,2013-08-03 15:35:00,
2013-08-03 11:50:00,81.7,73.0,29.96,West,263,2.0,4.0,75,0.00,,,0.00,weatherlink.com 1.10,2013-08-03 15:50:00,
2013-08-03 12:05:00,82.0,72.0,29.96,NW,305,1.0,5.0,71,0.00,,,0.00,weatherlink.com 1.10,2013-08-03 16:05:00,
2013-08-03 12:20:00,83.1,71.0,29.96,NNE,30,5.0,6.0,67,0.00,,,0.00,weatherlink.com 1.10,2013-08-03 16:20:00,
2013-08-03 12:35:00,83.8,72.0,29.96,WNW,300,1.0,7.0,68,0.00,,,0.00,weatherlink.com 1.10,2013-08-03 16:35:00,
2013-08-03 12:50:00,83.8,71.0,29.95,NNW,333,4.0,5.0,66,0.00,,,0.00,weatherlink.com 1.10,2013-08-03 16:50:00,
2013-08-03 13:05:00,84.0,71.0,29.96,West,269,4.0,6.0,65,0.00,,,0.00,weatherlink.com 1.10,2013-08-03 17:05:00,
2013-08-03 13:20:00,84.9,71.0,29.96,West,276,1.0,5.0,64,0.00,,,0.00,weatherlink.com 1.10,2013-08-03 17:20:00,
2013-08-03 13:35:00,84.7,73.0,29.95,SSW,212,5.0,7.0,68,0.00,,,0.00,weatherlink.com 1.10,2013-08-03 17:35:00,
2013-08-03 13:50:00,84.5,71.0,29.95,NW,306,4.0,4.0,65,0.00,,,0.00,weatherlink.com 1.10,2013-08-03 17:50:00,
2013-08-03 14:05:00,84.6,71.0,29.95,WSW,239,0.0,5.0,64,0.00,,,0.00,weatherlink.com 1.10,2013-08-03 18:05:00,
2013-08-03 14:20:00,85.0,70.0,29.95,NW,322,3.0,6.0,60,0.00,,,0.00,weatherlink.com 1.10,2013-08-03 18:20:00,
2013-08-03 14:35:00,86.4,69.0,29.94,WNW,289,2.0,6.0,56,0.00,,,0.00,weatherlink.com 1.10,2013-08-03 18:35:00,
2013-08-03 14:50:00,86.3,69.0,29.94,SW,214,5.0,7.0,56,0.00,,,0.00,weatherlink.com 1.10,2013-08-03 18:50:00,
2013-08-03 15:05:00,86.0,69.0,29.93,WSW,246,4.0,9.0,57,0.00,,,0.00,weatherlink.com 1.10,2013-08-03 19:05:00,
2013-08-03 15:20:00,85.9,69.0,29.93,WSW,251,1.0,7.0,57,0.00,,,0.00,weatherlink.com 1.10,2013-08-03 19:20:00,
2013-08-03 15:35:00,85.9,67.0,29.92,WSW,247,2.0,6.0,54,0.00,,,0.00,weatherlink.com 1.10,2013-08-03 19:35:00,
2013-08-03 15:51:00,86.1,69.0,29.92,West,276,3.0,5.0,57,0.00,,,0.00,weatherlink.com 1.10,2013-08-03 19:51:00,
2013-08-03 16:06:00,85.9,67.0,29.92,WNW,301,8.0,8.0,53,0.00,,,0.00,weatherlink.com 1.10,2013-08-03 20:06:00,
2013-08-03 16:21:00,86.3,69.0,29.92,NW,309,4.0,5.0,56,0.00,,,0.00,weatherlink.com 1.10,2013-08-03 20:21:00,
2013-08-03 16:36:00,86.1,68.0,29.91,NW,320,4.0,7.0,55,0.00,,,0.00,weatherlink.com 1.10,2013-08-03 20:36:00,
2013-08-03 16:51:00,86.3,68.0,29.91,WNW,296,4.0,8.0,55,0.00,,,0.00,weatherlink.com 1.10,2013-08-03 20:51:00,
2013-08-03 17:06:00,85.8,69.0,29.91,West,272,3.0,7.0,58,0.00,,,0.00,weatherlink.com 1.10,2013-08-03 21:06:00,
2013-08-03 17:21:00,85.5,68.0,29.91,NNW,332,3.0,8.0,57,0.00,,,0.00,weatherlink.com 1.10,2013-08-03 21:21:00,
2013-08-03 17:36:00,84.7,70.0,29.91,NNW,328,3.0,6.0,61,0.00,,,0.00,weatherlink.com 1.10,2013-08-03 21:36:00,
2013-08-03 17:51:00,84.7,71.0,29.91,NW,312,4.0,6.0,64,0.00,,,0.00,weatherlink.com 1.10,2013-08-03 21:51:00,
2013-08-03 18:06:00,84.3,70.0,29.91,NW,316,3.0,6.0,62,0.00,,,0.00,weatherlink.com 1.10,2013-08-03 22:06:00,
2013-08-03 18:21:00,83.4,67.0,29.90,NNW,329,2.0,5.0,59,0.00,,,0.00,weatherlink.com 1.10,2013-08-03 22:21:00,
2013-08-03 18:36:00,82.9,66.0,29.90,NNW,331,1.0,4.0,57,0.00,,,0.00,weatherlink.com 1.10,2013-08-03 22:36:00,
2013-08-03 18:51:00,82.0,70.0,29.90,NNW,331,0.0,2.0,66,0.00,,,0.00,weatherlink.com 1.10,2013-08-03 22:51:00,
2013-08-03 19:06:00,81.8,71.0,29.91,ESE,118,1.0,3.0,70,0.00,,,0.00,weatherlink.com 1.10,2013-08-03 23:06:00,
2013-08-03 19:21:00,81.6,67.0,29.91,NE,50,2.0,4.0,62,0.00,,,0.00,weatherlink.com 1.10,2013-08-03 23:21:00,
2013-08-03 19:36:00,81.2,68.0,29.91,East,85,1.0,3.0,65,0.00,,,0.00,weatherlink.com 1.10,2013-08-03 23:36:00,
2013-08-03 19:51:00,80.2,70.0,29.91,NW,314,0.0,2.0,70,0.00,,,0.00,weatherlink.com 1.10,2013-08-03 23:51:00,
2013-08-03 20:06:00,79.2,69.0,29.92,NW,314,0.0,0.0,71,0.00,,,0.00,weatherlink.com 1.10,2013-08-04 00:06:00,
2013-08-03 20:21:00,77.9,69.0,29.92,NW,314,0.0,0.0,74,0.00,,,0.00,weatherlink.com 1.10,2013-08-04 00:21:00,
2013-08-03 20:36:00,77.8,69.0,29.92,NW,314,1.0,1.0,73,0.00,,,0.00,weatherlink.com 1.10,2013-08-04 00:36:00,
2013-08-03 20:51:00,75.8,70.0,29.92,NW,314,0.0,2.0,81,0.00,,,0.00,weatherlink.com 1.10,2013-08-04 00:51:00,
2013-08-03 21:06:00,74.8,70.0,29.92,NW,314,0.0,1.0,85,0.00,,,0.00,weatherlink.com 1.10,2013-08-04 01:06:00,
2013-08-03 21:21:00,74.4,70.0,29.92,NW,314,0.0,1.0,85,0.00,,,0.00,weatherlink.com 1.10,2013-08-04 01:21:00,
2013-08-03 21:36:00,73.6,70.0,29.93,NW,314,0.0,0.0,87,0.00,,,0.00,weatherlink.com 1.10,2013-08-04 01:36:00,
2013-08-03 21:51:00,72.9,70.0,29.94,NW,314,0.0,1.0,90,0.00,,,0.00,weatherlink.com 1.10,2013-08-04 01:51:00,
2013-08-03 22:06:00,72.6,70.0,29.94,NW,314,0.0,0.0,90,0.00,,,0.00,weatherlink.com 1.10,2013-08-04 02:06:00,
2013-08-03 22:21:00,72.5,69.0,29.94,NW,314,0.0,0.0,88,0.00,,,0.00,weatherlink.com 1.10,2013-08-04 02:21:00,
2013-08-03 22:36:00,72.2,69.0,29.94,NW,314,0.0,0.0,90,0.00,,,0.00,weatherlink.com 1.10,2013-08-04 02:36:00,
2013-08-03 22:51:00,71.5,69.0,29.94,NW,314,0.0,1.0,90,0.00,,,0.00,weatherlink.com 1.10,2013-08-04 02:51:00,
2013-08-03 23:06:00,70.8,68.0,29.94,NW,314,0.0,1.0,92,0.00,,,0.00,weatherlink.com 1.10,2013-08-04 03:06:00,
2013-08-03 23:21:00,70.5,68.0,29.94,NW,314,0.0,0.0,92,0.00,,,0.00,weatherlink.com 1.10,2013-08-04 03:21:00,
2013-08-03 23:36:00,70.6,68.0,29.94,NW,315,0.0,2.0,91,0.00,,,0.00,weatherlink.com 1.10,2013-08-04 03:36:00,
2013-08-03 23:51:00,70.3,68.0,29.94,NW,315,0.0,1.0,92,0.00,,,0.00,weatherlink.com 1.10,2013-08-04 03:51:00,